Lid_Strength_Index
2 2 2 2 2 2 2 2 2 2 2 2 2 2 2 3 4 6 7 4 3 1 1 6 6 8 4 5 8 9 13 13 12 12 11 8 8 7 7 7 6 6 6 4 3
1 1 1 2 2 2 2 2 2 2 2 2 2 2 2 2 6 7 3 2 2 1 4 7 8 8 8 6 9 12 13 12 9 11 10 8 8 8 8 9 8 7 4 3 5
1 1 1 2 2 2 2 2 2 2 2 2 2 2 2 3 8 5 2 3 3 3 4 5 8 7 8 7 9 12 13 10 11 9 10 10 10 9 9 10 7 8 6 4 5
1 1 1 1 2 2 2 2 2 2 2 3 2 2 2 5 13 4 2 3 2 5 4 6 9 10 9 9 7 11 10 10 10 8 10 10 9 10 9 8 6 5 4 4 4
1 1 1 1 1 2 2 2 2 2 3 3 3 3 5 10 11 6 3 4 5 6 7 7 10 11 11 9 8 10 10 9 8 8 9 9 11 10 9 7 6 4 4 5 4
1 1 1 1 1 1 1 1 2 2 2 3 3 3 8 15 6 6 6 6 7 7 8 8 9 10 11 11 10 8 8 8 9 9 8 10 11 11 10 7 6 5 5 5 4
1 0 1 1 0 0 1 1 1 2 2 3 3 5 9 12 7 7 6 7 7 7 8 7 7 10 12 13 9 8 10 10 9 9 10 10 12 12 10 8 7 6 6 5 4
0 0 0 0 0 -0 0 0 0 1 2 2 3 6 12 6 7 7 7 7 7 7 7 6 6 8 11 12 10 11 12 14 11 9 9 10 13 11 10 10 10 7 6 6 5
-0 -0 -0 -1 -1 -1 -1 -1 0 -0 0 1 6 8 12 6 8 7 7 8 7 7 7 6 6 8 11 14 14 12 17 15 13 9 9 10 12 10 9 11 12 11 6 6 5
-1 -1 -2 -2 -2 -2 -2 -2 -2 -1 1 1 4 11 10 11 8 7 7 8 9 9 9 9 8 11 14 16 19 17 15 14 14 11 10 11 12 11 10 10 11 11 10 7 6
-2 -2 -2 -2 -2 -2 -0 3 6 7 5 7 7 8 8 6 6 8 8 10 10 11 14 10 12 14 13 13 14 14 15 14 13 10 11 12 11 10 8 9 10 10 11 12 10
-2 -2 -2 -2 -2 -2 2 5 5 4 8 5 5 5 4 4 9 8 7 13 13 15 13 13 15 12 10 12 13 14 16 16 14 11 11 12 12 10 8 8 8 8 10 10 10
-2 -2 -2 -2 -1 2 4 4 1 2 8 7 5 5 4 4 7 7 8 11 14 16 15 16 14 11 11 12 14 14 16 16 16 14 13 13 14 12 10 10 8 7 8 10 10
-2 -2 -2 -1 2 4 5 1 1 3 20 12 7 6 4 4 8 4 5 9 12 15 14 14 12 13 13 13 13 16 12 13 14 15 18 13 19 14 11 11 10 8 8 9 10
-2 -1 -1 -0 5 4 2 1 1 6 27 10 7 2 4 7 6 6 4 7 12 12 12 16 13 14 15 13 11 14 12 12 12 13 15 17 17 16 12 12 11 9 8 9 12
-1 -1 -1 2 3 2 1 1 4 18 26 16 9 8 8 7 7 6 6 5 7 11 12 13 10 12 13 11 11 10 12 13 12 13 19 16 16 19 16 12 10 9 8 11 13
-1 -1 0 1 4 1 2 5 17 24 14 17 15 10 10 10 9 8 9 10 12 19 17 14 13 10 10 13 11 12 14 18 20 20 20 15 16 16 14 13 13 10 9 9 12
-1 0 1 1 2 2 5 14 24 21 20 10 10 10 13 10 10 10 11 14 10 12 14 19 21 12 10 13 13 13 14 18 23 21 20 16 18 16 11 14 13 12 11 12 12
1 5 4 3 1 4 11 21 19 18 10 11 10 16 20 13 11 12 13 13 11 10 15 19 16 10 8 9 10 13 15 12 17 19 18 17 16 14 13 14 13 12 11 11 11
6 5 5 3 2 8 15 15 19 9 9 9 14 13 23 20 16 16 14 10 11 9 8 12 16 11 10 8 9 11 10 16 15 24 24 19 19 17 15 14 12 12 11 11 10
6 12 6 3 5 13 20 20 16 9 8 10 12 14 15 17 17 20 13 10 9 9 9 10 13 13 11 13 13 13 14 14 13 17 20 21 20 16 15 12 12 11 10 10 10
12 18 7 5 14 14 21 17 9 9 9 9 9 10 11 12 18 14 14 11 7 8 12 10 13 16 14 10 9 11 12 13 17 18 18 17 19 13 13 11 10 11 10 11 10
14 15 6 8 20 19 19 13 10 10 9 12 11 9 9 11 15 12 12 8 7 9 11 10 13 22 17 13 11 13 12 12 12 14 18 20 19 12 11 11 10 11 10 11 11
14 19 16 15 19 20 23 20 16 9 10 9 11 10 10 12 10 16 12 10 7 8 7 8 13 17 18 16 13 15 14 12 13 16 16 16 16 14 12 12 12 11 11 11 12
13 19 16 22 20 23 18 15 14 14 12 9 10 11 13 18 13 13 11 11 10 8 9 10 15 13 13 12 13 14 14 13 14 13 15 15 14 13 12 12 11 11 11 12 12
16 17 14 25 16 21 19 19 14 14 12 15 13 10 11 15 13 13 11 11 13 10 10 10 14 13 16 13 13 15 15 13 12 13 14 12 13 11 12 11 11 11 11 12 12
13 13 13 17 23 18 21 18 14 13 12 10 11 11 12 10 9 10 10 10 9 11 12 12 14 18 18 15 15 18 16 15 13 12 13 14 11 12 12 11 11 12 11 11 11